Terminal Aerodrome Forecast
Issued by NWS

Home | Current Version | Previous Version | Graphics & Text | Print | Product List | Glossary On
Versions: 1 2 3 4 5 6 7 8 9 10 11 12 13 14 15 16 17 18 19 20 21 22 23 24 25 26 27 28 29 30 31 32 33
000
FTUS43 KLOT 261357 AAB
TAFORD
TAF AMD
KORD 261357Z 2614/2718 29009KT P6SM SCT029 BKN250
     FM261500 31012G20KT P6SM SCT030 BKN200
     FM261900 34013G17KT P6SM BKN030
     FM270200 36009KT P6SM BKN035
     FM270800 36012KT P6SM BKN050
     FM271500 36010G18KT P6SM SCT040 BKN060=

USA.gov is the U.S. government's official web portal to all federal, state and local government web resources and services.